TimeEDT,TemperatureF,Dew PointF,Humidity,Sea Level PressureIn,VisibilityMPH,Wind Direction,Wind SpeedMPH,Gust SpeedMPH,PrecipitationIn,Events,Conditions,WindDirDegrees,DateUTC
12:54 AM,70.0,66.9,90,29.98,10.0,WSW,4.6,-,N/A,,Scattered Clouds,250,2013-09-12 04:54:00
1:54 AM,71.1,66.9,87,29.98,10.0,West,5.8,-,N/A,,Mostly Cloudy,270,2013-09-12 05:54:00
2:54 AM,71.1,66.9,87,29.99,8.0,WNW,9.2,20.7,0.03,Rain,Light Rain,290,2013-09-12 06:54:00
3:54 AM,70.0,68.0,93,29.96,6.0,West,4.6,-,0.07,Rain,Light Rain,270,2013-09-12 07:54:00
4:02 AM,69.8,68.0,94,29.99,8.0,West,4.6,-,0.00,Rain,Light Rain,270,2013-09-12 08:02:00
4:54 AM,70.0,68.0,93,29.95,4.0,WSW,4.6,-,0.08,Rain,Light Rain,240,2013-09-12 08:54:00
5:13 AM,69.8,68.0,94,29.97,6.0,WSW,4.6,-,0.01,Rain,Light Rain,250,2013-09-12 09:13:00
5:54 AM,70.0,68.0,93,29.95,7.0,WSW,4.6,-,0.02,,Overcast,240,2013-09-12 09:54:00
6:21 AM,69.8,68.0,94,29.98,6.0,West,5.8,-,0.01,Rain,Light Rain,270,2013-09-12 10:21:00
6:29 AM,69.8,68.0,94,29.98,7.0,West,6.9,-,0.01,,Overcast,260,2013-09-12 10:29:00
6:54 AM,70.0,68.0,93,29.96,7.0,West,4.6,-,0.01,,Overcast,270,2013-09-12 10:54:00
7:42 AM,69.8,68.0,94,29.98,6.0,West,5.8,-,N/A,,Overcast,260,2013-09-12 11:42:00
7:54 AM,70.0,68.0,93,29.96,5.0,West,8.1,-,0.00,Rain,Light Rain,270,2013-09-12 11:54:00
8:15 AM,69.8,68.0,94,29.98,5.0,West,8.1,-,0.00,,Overcast,260,2013-09-12 12:15:00
8:35 AM,69.8,68.0,94,29.98,5.0,West,6.9,-,0.00,,Overcast,260,2013-09-12 12:35:00
8:54 AM,70.0,68.0,93,29.95,6.0,West,5.8,-,0.00,,Overcast,270,2013-09-12 12:54:00
9:20 AM,69.8,68.0,94,29.97,5.0,WNW,5.8,-,N/A,,Overcast,290,2013-09-12 13:20:00
9:43 AM,69.8,68.0,94,29.98,5.0,West,5.8,-,N/A,,Overcast,270,2013-09-12 13:43:00
9:54 AM,71.1,68.0,90,29.96,6.0,West,6.9,-,N/A,,Overcast,270,2013-09-12 13:54:00
10:47 AM,71.6,68.0,88,29.99,6.0,West,8.1,-,N/A,,Overcast,280,2013-09-12 14:47:00
10:54 AM,72.0,68.0,87,29.97,6.0,West,8.1,-,N/A,,Overcast,270,2013-09-12 14:54:00
11:28 AM,73.4,68.0,83,29.98,8.0,West,6.9,-,N/A,,Overcast,270,2013-09-12 15:28:00
11:41 AM,73.4,68.0,83,29.98,8.0,West,8.1,-,N/A,,Overcast,260,2013-09-12 15:41:00
11:54 AM,73.0,66.9,81,29.97,8.0,West,8.1,-,N/A,,Mostly Cloudy,280,2013-09-12 15:54:00
12:54 PM,75.0,66.0,73,29.97,10.0,West,8.1,-,N/A,,Mostly Cloudy,280,2013-09-12 16:54:00
1:54 PM,79.0,55.0,44,29.95,10.0,West,9.2,-,N/A,,Scattered Clouds,280,2013-09-12 17:54:00
2:54 PM,81.0,53.1,38,29.92,10.0,Variable,3.5,-,N/A,,Scattered Clouds,0,2013-09-12 18:54:00
3:54 PM,82.9,54.0,37,29.88,10.0,NNW,6.9,-,N/A,,Scattered Clouds,330,2013-09-12 19:54:00
4:54 PM,79.0,53.1,40,29.87,10.0,West,5.8,-,N/A,,Scattered Clouds,280,2013-09-12 20:54:00
5:54 PM,79.0,53.1,40,29.84,10.0,WSW,9.2,-,N/A,,Mostly Cloudy,240,2013-09-12 21:54:00
6:54 PM,66.0,62.1,87,29.88,10.0,Calm,Calm,-,0.03,Rain,Light Rain,0,2013-09-12 22:54:00
7:54 PM,64.9,62.1,90,29.90,10.0,WNW,3.5,-,0.00,,Scattered Clouds,290,2013-09-12 23:54:00
8:54 PM,66.9,62.1,84,29.94,10.0,NNW,6.9,-,0.00,,Mostly Cloudy,330,2013-09-13 00:54:00
9:54 PM,66.0,55.9,70,29.96,10.0,North,16.1,23.0,N/A,,Mostly Cloudy,10,2013-09-13 01:54:00
10:54 PM,62.1,55.9,80,29.98,10.0,North,5.8,-,N/A,,Scattered Clouds,360,2013-09-13 02:54:00
11:54 PM,60.1,54.0,80,29.99,10.0,North,8.1,-,N/A,,Scattered Clouds,350,2013-09-13 03:54:00